Location: *
(46.3500°N, 10.9000°E)
Time: 21:07:20
(UTC+00:00)

Explorer 7 - Pass Details

Date: 27 April 2021
Orbit: 484 x 677 km, 50.3° (Epoch: 13 May)

Event Time Altitude Azimuth Distance (km) Brightness Sun altitude
Rises 17:44:39 0° 255° (WSW) 2,579 11.4 5.0°
Reaches altitude 10° 17:46:48 10° 258° (WSW) 1,717 10.7 4.6°
Maximum altitude 17:50:40 68° 343° (NNW) 567 7.2 4.0°
Drops below altitude 10° 17:54:46 10° 66° (ENE) 1,819 9.0 3.3°
Sets 17:57:06 0° 69° (ENE) 2,750 9.9 2.9°
